Regional Weather Roundup
Issued by NWS

Home | Current Version | Previous Version | Text Only | Print | Product List | Glossary On
Versions: 1 2 3 4 5 6 7 8 9 10 11 12 13 14 15 16 17 18 19 20 21 22 23 24 25 26 27 28 29 30 31 32 33 34 35 36 37 38 39 40 41 42 43 44 45 46 47 48 49 50
000
ASUS43 KMKX 200011
RWRWI

WISCONSIN REGIONAL WEATHER ROUNDUP
NATIONAL WEATHER SERVICE MILWAUKEE/SULLIVAN WI
700 PM CDT SUN APR 19 2015

NOTE: "FAIR" INDICATES FEW OR NO CLOUDS BELOW 12,000 FEET WITH NO
SIGNIFICANT WEATHER AND/OR OBSTRUCTIONS TO VISIBILITY.

WIZ001-002-006>008-014>016-023>028-200100-
NORTHWEST WISCONSIN

CITY           SKY/WX    TMP DP  RH WIND       PRES   REMARKS
SUPERIOR ARPT  CLOUDY    36  35  99 E6        29.60S FOG     WCI  31
6HR MIN TEMP:  36; 6HR MAX TEMP:  38; 6HR PCP:  0.01;

ASHLAND        CLOUDY    47  41  80 NE5       29.55F
6HR MIN TEMP:  44; 6HR MAX TEMP:  54; 6HR PCP: TRACE;

HAYWARD        LGT RAIN  51  46  83 CALM      29.54S
6HR MIN TEMP:  51; 6HR MAX TEMP:  56; 6HR PCP:  0.02;

SIREN          LGT RAIN  50  45  81 NW10      29.57S
6HR MIN TEMP:  50; 6HR MAX TEMP:  57;

CUMBERLAND     DRIZZLE   48  45  87 NW12      29.56S
RICE LAKE      LGT RAIN  50  47  89 CALM      29.57S
6HR MIN TEMP:  50; 6HR MAX TEMP:  59; 6HR PCP:  0.07;

CHETEK         RAIN      49  48  97 CALM      29.55S
6HR MIN TEMP:  49; 6HR MAX TEMP:  59; 6HR PCP:  0.07;

LADYSMITH      LGT RAIN  49  48  95 NW3       29.54F
6HR MIN TEMP:  49; 6HR MAX TEMP:  53; 6HR PCP:  0.51;

EAU CLAIRE     RAIN      50  48  93 W6        29.53S FOG
6HR MIN TEMP:  50; 6HR MAX TEMP:  56; 6HR PCP:  0.14;

MENOMONIE      RAIN      52  51  95 NW9G16    29.55S
6HR MIN TEMP:  51; 6HR MAX TEMP:  64; 6HR PCP:  0.43;

NEW RICHMOND   CLOUDY    52  45  77 NW13      29.58R
6HR MIN TEMP:  52; 6HR MAX TEMP:  58; 6HR PCP:  0.09;

OSCEOLA        LGT RAIN  53  46  79 W14       29.61R
6HR MIN TEMP:  53; 6HR MAX TEMP:  58;

$$

WIZ003>005-009-010-017-018-200100-
NORTH CENTRAL WISCONSIN

CITY           SKY/WX    TMP DP  RH WIND       PRES   REMARKS
MANITOWISH WTR CLOUDY    56  41  57 E5        29.53F
6HR MIN TEMP:  53; 6HR MAX TEMP:  59;

ARBOR VITAE    CLOUDY    59  38  45 SE6       29.53F
6HR MIN TEMP:  57; 6HR MAX TEMP:  62;

WOODRUFF       CLOUDY    59  38  45 SE6       29.53F
6HR MIN TEMP:  57; 6HR MAX TEMP:  62;

RHINELANDER    CLOUDY    57  34  41 E12       29.55F
6HR MIN TEMP:  55; 6HR MAX TEMP:  62;

EAGLE RIVER    CLOUDY    55  31  40 SE9       29.55F
6HR MIN TEMP:  55; 6HR MAX TEMP:  61;

LAND O LAKES   CLOUDY    55  32  41 SE5       29.56F
6HR MIN TEMP:  55; 6HR MAX TEMP:  62;

PHILLIPS       CLOUDY    52  47  84 CALM      29.52F
6HR MIN TEMP:  47; 6HR MAX TEMP:  53; 6HR PCP:  0.01;

TOMAHAWK       CLOUDY    59  36  42 SE5       29.53F
6HR MIN TEMP:  56; 6HR MAX TEMP:  62;

MEDFORD        CLOUDY    60  40  47 E3        29.51F
6HR MIN TEMP:  54; 6HR MAX TEMP:  64;

MERRILL        CLOUDY    60  37  42 E12       29.52F
6HR MIN TEMP:  58; 6HR MAX TEMP:  64;

$$

WIZ029-030-035-036-043>047-200100-
CENTRAL WISCONSIN

CITY           SKY/WX    TMP DP  RH WIND       PRES   REMARKS
WAUSAU         CLOUDY    61  36  39 E12       29.51F
6HR MIN TEMP:  60; 6HR MAX TEMP:  66;

MOSINEE        MOCLDY    63  36  36 E13       29.53F
MARSHFIELD     CLOUDY    62  39  42 E8        29.49F
6HR MIN TEMP:  62; 6HR MAX TEMP:  68;

STEVENS POINT  CLOUDY    61  36  38 E9        29.51F
6HR MIN TEMP:  61; 6HR MAX TEMP:  65;

WAUPACA        CLOUDY    65  30  26 E9        29.53F
6HR MIN TEMP:  65; 6HR MAX TEMP:  70;

WAUTOMA        CLOUDY    65  33  30 E10       29.51F
6HR MIN TEMP:  65; 6HR MAX TEMP:  73;

WISC RAPIDS    CLOUDY    64  34  32 E12       29.50F
6HR MIN TEMP:  64; 6HR MAX TEMP:  72;

CAMP DOUGLAS   CLOUDY    68  41  37 E10       29.45F
6HR MIN TEMP:  64; 6HR MAX TEMP:  73;

$$

WIZ011>013-019>022-031-037>040-048>050-200100-
NORTHEAST WISCONSIN

CITY           SKY/WX    TMP DP  RH WIND       PRES   REMARKS
ANTIGO         CLOUDY    54  35  47 E10       29.56S
SHAWANO        CLOUDY    58  36  43 E9        29.56F
6HR MIN TEMP:  58; 6HR MAX TEMP:  67;

OCONTO         CLOUDY    52  32  47 NE8       29.56F
6HR MIN TEMP:  52; 6HR MAX TEMP:  59;

STURGEON BAY   CLOUDY    45  34  65 NW6       29.59F
6HR MIN TEMP:  45; 6HR MAX TEMP:  59;

GREEN BAY      CLOUDY    51  36  56 NE17      29.56F
6HR MIN TEMP:  51; 6HR MAX TEMP:  67;

MANITOWOC      CLOUDY    52  33  48 NE5       29.56F
6HR MIN TEMP:  52; 6HR MAX TEMP:  60;

APPLETON       PTCLDY    63  28  27 E7        29.54F
CLINTONVILLE   CLOUDY    59  32  36 E9        29.55F
OSHKOSH        CLOUDY    61  34  36 E12       29.52F
6HR MIN TEMP:  61; 6HR MAX TEMP:  68;

$$

WIZ032>034-041-042-053>061-200100-
SOUTHWEST WISCONSIN

CITY           SKY/WX    TMP DP  RH WIND       PRES   REMARKS
LA CROSSE      LGT RAIN  54  50  86 NW9       29.49F FOG
6HR MIN TEMP:  54; 6HR MAX TEMP:  57; 6HR PCP:  0.08;

SPARTA         CLOUDY    61  45  54 N9        29.46F
6HR MIN TEMP:  61; 6HR MAX TEMP:  66;

VIROQUA        CLOUDY    62  46  56 NW7       29.46F
6HR MIN TEMP:  61; 6HR MAX TEMP:  67;

BOSCOBEL       CLOUDY    73  43  33 NE5       29.41F
6HR MIN TEMP:  69; 6HR MAX TEMP:  78;

PRAIRIE DU CHI CLOUDY    63  48  58 NW10      29.43F
6HR MIN TEMP:  63; 6HR MAX TEMP:  69;

PLATTEVILLE    CLOUDY    62  49  61 SE12      29.44F
6HR MIN TEMP:  62; 6HR MAX TEMP:  75;

$$

WIZ056-057-062-063-064-067-068-200100-
SOUTH CENTRAL WISCONSIN

CITY           SKY/WX    TMP DP  RH WIND       PRES   REMARKS
REEDSBURG      CLOUDY    66  40  37 E13       29.45F
6HR MIN TEMP:  66; 6HR MAX TEMP:  75;

BARABOO/DELLS  CLOUDY    65  35  32 E10       29.47F
6HR MIN TEMP:  65; 6HR MAX TEMP:  74;

LONE ROCK      CLOUDY    68  41  37 E13       29.43F
6HR MIN TEMP:  68; 6HR MAX TEMP:  76;

MINERAL POINT  CLOUDY    66  43  42 SE9       29.44F
MADISON        CLOUDY    64  34  32 E16G22    29.47F
6HR MIN TEMP:  64; 6HR MAX TEMP:  74;

MIDDLETON      CLOUDY    64  32  30 E10       29.47F
6HR MIN TEMP:  64; 6HR MAX TEMP:  75;

WATERTOWN      CLOUDY    58  35  41 E15G21    29.49F
6HR MIN TEMP:  58; 6HR MAX TEMP:  70;

MONROE         CLOUDY    61  41  48 E12G20    29.46F
JANESVILLE     LGT RAIN  55  46  71 E12       29.48F
$$

WIZ051-052-058>065-066-070>072-200100-
SOUTHEAST WISCONSIN

CITY           SKY/WX    TMP DP  RH WIND       PRES   REMARKS
MILWAUKEE      LGT RAIN  42  35  76 NE8       29.53F
6HR MIN TEMP:  42; 6HR MAX TEMP:  55; 6HR PCP:  0.01;

WAUKESHA       CLOUDY    50  36  57 E12       29.53F
MILWAUKEE/TIMM CLOUDY    50  34  53 E7        29.54F
RACINE         RAIN      44  40  85 NE9       29.53F FOG
6HR MIN TEMP:  43; 6HR MAX TEMP:  60; 6HR PCP:  0.06;

BURLINGTON     LGT RAIN  46  41  82 NE6       29.50F
6HR MIN TEMP:  46; 6HR MAX TEMP:  65; 6HR PCP:  0.02;

KENOSHA        RAIN      47  44  90 NE9       29.50F FOG
6HR MIN TEMP:  47; 6HR MAX TEMP:  63; 6HR PCP:  0.08;

FOND DU LAC    CLOUDY    61  32  33 SE13G24   29.51F
6HR MIN TEMP:  61; 6HR MAX TEMP:  69;

SHEBOYGAN      CLOUDY    50  35  56 NE10      29.54F
6HR MIN TEMP:  50; 6HR MAX TEMP:  63;

WEST BEND      CLOUDY    54  30  40 E12       29.52F
JUNEAU         CLOUDY    58  35  40 E10       29.51F
6HR MIN TEMP:  58; 6HR MAX TEMP:  67;

$$

LSZ147-162-200100-
LAKE SUPERIOR

STATION/POSITION TIME  TEMP    WIND        PRES    WAVE
                       AIR SEA DIR/SP/G            HT/PER
                 (UTC) (F)     (DEG/KT/KT) (MB)    (FT/S)
DEVILS ISLAND    0000   36      60/  9/ 10 1001.8F
PORT WING        2340   36      30/ 10/ 11 1002.0F
SAXON HARBOR     2300   43      70/  7/  9 1001.0
$$

LMZ867-665-643>646-200100-
LAKE MICHIGAN

STATION/POSITION TIME  TEMP    WIND        PRES    WAVE
                       AIR SEA DIR/SP/G            HT/PER


USA.gov is the U.S. government's official web portal to all federal, state and local government web resources and services.